CW3590 Weather Reports


Display with metric or nautical units.
time (UTC)temp
F
wind
direction
speed
MPH
gust
MPH
rain 1hr
in
rain 24hr
in
rain mn
in
humidity
%
barometer
mb
20260510220006 81 35 3.0 9.0 0.00 0.00 0.00 59 1013.7
20260510215005 81 38 3.0 8.0 0.00 0.00 0.00 58 1013.7
20260510213006 81 60 4.0 12.0 0.00 0.00 0.00 62 1013.8
20260510212005 81 53 3.0 11.0 0.00 0.00 0.00 63 1013.6
20260510211005 79 55 3.0 9.0 0.00 0.00 0.00 64 1013.7
20260510210006 78 66 4.0 8.0 0.00 0.00 0.00 66 1013.8
20260510205005 77 67 3.0 11.0 0.00 0.00 0.00 68 1013.8
20260510204005 76 46 2.0 7.0 0.00 0.00 0.00 70 1014.2
20260510203005 74 69 3.0 12.0 0.00 0.00 0.00 75 1014.6
20260510202006 74 34 4.0 12.0 0.00 0.00 0.00 75 1014.8
20260510201005 75 31 4.0 14.0 0.00 0.00 0.00 75 1015.1
20260510195007 75 345 6.0 14.0 0.00 0.00 0.00 75 1015.6
20260510194006 81 349 3.0 24.0 0.00 0.00 0.00 65 1015.5
20260510193006 83 6 3.0 10.0 0.00 0.00 0.00 64 1015.5
20260510192005 83 24 3.0 9.0 0.00 0.00 0.00 65 1015.5
20260510191005 83 39 3.0 8.0 0.00 0.00 0.00 63 1015.3
20260510190006 83 21 2.0 5.0 0.00 0.00 0.00 62 1015.1
20260510185004 83 48 2.0 7.0 0.00 0.00 0.00 64 1014.9
20260510184005 84 31 1.0 4.0 0.00 0.00 0.00 62 1014.6
20260510182006 83 34 1.0 4.0 0.00 0.00 0.00 63 1014.3
20260510181005 84 45 1.0 5.0 0.00 0.00 0.00 63 1014.1
20260510180005 83 53 1.0 5.0 0.00 0.00 0.00 61 1014.0
20260510175005 83 90 1.0 5.0 0.00 0.00 0.00 61 1013.9
20260510174006 83 142 1.0 4.0 0.00 0.00 0.00 61 1013.9
20260510172005 82 201 2.0 4.0 0.00 0.00 0.00 63 1013.7
20260510171005 81 181 1.0 6.0 0.00 0.00 0.00 63 1013.4
20260510170005 81 176 2.0 4.0 0.00 0.00 0.00 63 1013.3
20260510165005 80 170 2.0 5.0 0.00 0.00 0.00 66 1013.0
20260510164005 79 158 2.0 6.0 0.00 0.00 0.00 66 1013.0
20260510163005 78 160 3.0 8.0 0.00 0.00 0.00 67 1013.0
20260510162005 78 159 2.0 7.0 0.00 0.00 0.00 68 1012.9
20260510161005 78 160 2.0 7.0 0.00 0.00 0.00 69 1012.8
20260510155005 77 145 2.0 4.0 0.00 0.00 0.00 71 1012.9
20260510153005 76 162 2.0 5.0 0.00 0.00 0.00 73 1012.9
20260510152005 75 153 2.0 4.0 0.00 0.00 0.00 76 1012.9
20260510150006 74 160 2.0 4.0 0.00 0.00 0.00 78 1013.1
20260510145005 73 167 2.0 4.0 0.00 0.00 0.00 80 1013.1
20260510144005 72 152 2.0 4.0 0.00 0.00 0.00 82 1013.2
20260510143004 71 157 2.0 4.0 0.00 0.00 0.00 83 1013.4
20260510141005 70 130 2.0 6.0 0.00 0.00 0.00 86 1013.7
20260510134006 67 125 1.0 5.0 0.00 0.00 0.00 89 1014.0
20260510133005 67 150 1.0 4.0 0.00 0.00 0.00 89 1013.8
20260510131005 66 70 1.0 3.0 0.00 0.00 0.00 89 1013.6
20260510125005 66 63 1.0 4.0 0.00 0.00 0.00 89 1013.4
20260510124005 66 44 2.0 8.0 0.00 0.00 0.00 89 1013.8
20260510121005 67 49 3.0 9.0 0.00 0.00 0.00 89 1014.1
20260510120005 67 50 3.0 13.0 0.00 0.00 0.00 90 1014.7
20260510115005 67 33 3.0 9.0 0.00 0.00 0.00 90 1015.1
20260510114004 68 30 4.0 7.0 0.00 0.00 0.00 91 1015.4
20260510113006 68 2 3.0 18.0 0.00 0.00 0.00 91 1015.5
20260510112005 68 347 0.0 7.0 0.00 0.00 0.00 92 1015.5
20260510111005 68 76 0.0 2.0 0.00 0.00 0.00 92 1014.6
20260510110005 68 84 0.0 3.0 0.00 0.00 0.00 91 1014.1
20260510105004 68 43 1.0 7.0 0.00 0.00 0.00 91 1014.0
20260510102005 68 37 1.0 6.0 0.00 0.00 0.00 91 1013.3
20260510101006 68 99 0.0 2.0 0.00 0.00 0.00 90 1012.8
20260510100005 68 0 0.0 0.0 0.00 0.00 0.00 90 1012.2
20260510095005 68 0 0.0 2.0 0.00 0.00 0.00 90 1012.3
20260510094004 68 100 0.0 3.0 0.00 0.00 0.00 89 1012.3
20260510093004 68 0 0.0 2.0 0.00 0.00 0.00 89 1012.1
20260510092005 68 0 0.0 2.0 0.00 0.00 0.00 88 1011.8
20260510091005 68 0 0.0 0.0 0.00 0.00 0.00 88 1011.5
20260510085004 69 0 0.0 0.0 0.00 0.00 0.00 88 1010.6
20260510084006 69 0 0.0 0.0 0.00 0.00 0.00 88 1011.3
20260510083004 69 0 0.0 0.0 0.00 0.00 0.00 88 1011.2
20260510082004 69 0 0.0 0.0 0.00 0.00 0.00 88 1011.2
20260510081005 69 0 0.0 0.0 0.00 0.00 0.00 88 1010.6
20260510080005 69 0 0.0 0.0 0.00 0.00 0.00 88 1010.2
20260510075004 70 0 0.0 1.0 0.00 0.00 0.00 88 1009.8
20260510074004 70 0 0.0 1.0 0.00 0.00 0.00 88 1009.4
20260510073004 70 132 0.0 2.0 0.00 0.00 0.00 88 1009.2
20260510071004 70 143 1.0 3.0 0.00 0.00 0.00 87 1009.1
20260510070004 71 155 1.0 2.0 0.00 0.00 0.00 86 1009.4
20260510065004 71 0 0.0 1.0 0.00 0.00 0.00 86 1009.9
20260510064004 71 0 0.0 0.0 0.00 0.00 0.00 86 1010.0
20260510063005 71 0 0.0 0.0 0.00 0.00 0.00 86 1010.1
20260510062004 72 0 0.0 0.0 0.00 0.00 0.00 86 1010.1
20260510061005 72 155 0.0 2.0 0.00 0.00 0.00 86 1009.8
20260510060011 72 158 1.0 2.0 0.00 0.00 0.00 85 1009.7
20260510055011 72 147 1.0 3.0 0.00 0.00 0.00 85 1009.7
20260510054011 72 141 2.0 3.0 0.00 0.00 0.00 85 1009.6
20260510053011 73 174 1.0 5.0 0.00 0.00 0.00 86 1009.6
20260510051011 73 136 1.0 5.0 0.00 0.00 0.00 87 1009.4
20260510050011 73 148 1.0 3.0 0.00 0.00 0.00 87 1009.3
20260510045010 73 166 2.0 3.0 0.00 0.00 0.00 87 1009.4
20260510044010 74 134 2.0 3.0 0.00 0.00 0.00 88 1009.3
20260510043011 74 156 2.0 4.0 0.00 0.00 0.00 88 1009.4
20260510042012 74 162 1.0 4.0 0.00 0.00 0.00 89 1009.7
20260510041011 75 177 1.0 2.0 0.00 0.00 0.00 89 1009.7
20260510040011 75 192 1.0 2.0 0.00 0.00 0.00 89 1009.8
20260510035011 75 208 1.0 3.0 0.00 0.00 0.00 88 1009.7
20260510034011 76 147 1.0 7.0 0.00 0.00 0.00 88 1009.7
20260510032010 76 147 1.0 3.0 0.00 0.00 0.00 88 1009.4
20260510031010 76 87 1.0 3.0 0.00 0.00 0.00 88 1009.2
20260510030011 76 0 0.0 4.0 0.00 0.00 0.00 87 1009.0
20260510025011 76 0 0.0 2.0 0.00 0.00 0.00 87 1008.9
20260510024011 77 0 0.0 1.0 0.00 0.00 0.00 87 1008.7
20260510023011 77 0 0.0 2.0 0.00 0.00 0.00 86 1008.6
20260510022011 77 0 0.0 3.0 0.00 0.00 0.00 85 1008.7
20260510021010 77 102 0.0 3.0 0.00 0.00 0.00 85 1008.6
20260510020012 77 22 1.0 3.0 0.00 0.00 0.00 85 1008.5
20260510015011 77 0 0.0 3.0 0.00 0.00 0.00 84 1008.3
20260510014011 77 75 1.0 3.0 0.00 0.00 0.00 84 1008.1
20260510013011 78 41 0.0 5.0 0.00 0.00 0.00 83 1007.9
20260510012011 79 0 0.0 2.0 0.00 0.00 0.00 81 1007.8
20260510010011 80 0 0.0 1.0 0.00 0.00 0.00 79 1007.5
20260510005011 80 0 0.0 1.0 0.00 0.00 0.00 79 1007.3
20260510004011 81 0 0.0 0.0 0.00 0.00 0.00 79 1007.3
20260510003010 81 0 0.0 1.0 0.00 0.00 0.00 77 1007.2
20260510002011 81 0 0.0 1.0 0.00 0.00 0.00 76 1007.2
20260510000011 82 0 0.0 2.0 0.00 0.00 0.00 75 1006.9
20260509235010 82 91 0.0 2.0 0.00 0.00 0.00 74 1006.9
20260509234010 82 0 0.0 2.0 0.00 0.00 0.00 74 1006.7
20260509233010 83 0 0.0 1.0 0.00 0.00 0.00 74 1006.6
20260509232010 83 0 0.0 3.0 0.00 0.00 0.00 74 1006.6
20260509231011 82 0 0.0 1.0 0.00 0.00 0.00 74 1006.5
20260509230012 82 0 0.0 1.0 0.00 0.00 0.00 75 1006.6
20260509225011 82 0 0.0 1.0 0.00 0.00 0.00 74 1006.7
20260509224012 82 0 0.0 2.0 0.00 0.00 0.00 73 1006.6
20260509223010 83 102 0.0 1.0 0.00 0.00 0.00 71 1006.6
20260509222011 84 104 1.0 3.0 0.00 0.00 0.00 71 1006.6